Radiation Dose at Monitoring Post of Fukushima Daini Nuclear Power Station
Date,Time,MP-1(microSv/h),MP-2(microSv/h),MP-3(microSv/h),MP-4(microSv/h),MP-5(microSv/h),MP-6(microSv/h),MP-7(microSv/h),Wind Direction,Wind Velocity(m/s),Rain
2016/11/29,00:00,0.394,0.231,0.393,0.369,0.358,0.192,0.164,west-northwest,6.0,No
2016/11/29,00:10,0.395,0.231,0.395,0.370,0.356,0.192,0.165,west-northwest,6.3,No
2016/11/29,00:20,0.396,0.231,0.394,0.369,0.355,0.192,0.165,northwest,5.9,No
2016/11/29,00:30,0.394,0.232,0.394,0.369,0.355,0.192,0.165,west-northwest,5.4,No
2016/11/29,00:40,0.394,0.231,0.393,0.370,0.356,0.191,0.164,west-northwest,7.4,No
2016/11/29,00:50,0.395,0.231,0.395,0.370,0.356,0.192,0.165,west,8.3,No
2016/11/29,01:00,0.395,0.231,0.393,0.369,0.356,0.192,0.164,west,9.4,No
2016/11/29,01:10,0.393,0.231,0.393,0.371,0.355,0.190,0.164,west,9.2,No
2016/11/29,01:20,0.396,0.231,0.395,0.370,0.357,0.192,0.165,west-northwest,7.8,No
2016/11/29,01:30,0.395,0.231,0.395,0.368,0.356,0.192,0.164,west,7.7,No
2016/11/29,01:40,0.393,0.231,0.393,0.370,0.356,0.193,0.164,west-northwest,8.8,No
2016/11/29,01:50,0.395,0.231,0.394,0.370,0.357,0.192,0.165,west,6.3,No
2016/11/29,02:00,0.396,0.230,0.394,0.370,0.356,0.191,0.164,west-northwest,6.9,No
2016/11/29,02:10,0.393,0.232,0.392,0.370,0.356,0.192,0.166,west,5.6,No
2016/11/29,02:20,0.394,0.233,0.394,0.370,0.358,0.191,0.165,west-northwest,6.4,No
2016/11/29,02:30,0.394,0.230,0.395,0.369,0.356,0.190,0.166,west-northwest,6.7,No
2016/11/29,02:40,0.397,0.231,0.394,0.369,0.356,0.192,0.164,west-northwest,5.8,No
2016/11/29,02:50,0.393,0.231,0.393,0.371,0.357,0.192,0.164,west-northwest,2.9,No
2016/11/29,03:00,0.396,0.232,0.397,0.370,0.358,0.191,0.165,northwest,3.1,No
2016/11/29,03:10,0.395,0.231,0.394,0.370,0.356,0.191,0.164,northwest,3.9,No
2016/11/29,03:20,0.393,0.231,0.394,0.373,0.355,0.191,0.165,west-northwest,3.0,No
2016/11/29,03:30,0.396,0.231,0.396,0.370,0.356,0.193,0.164,west,2.3,No
2016/11/29,03:40,0.396,0.231,0.394,0.371,0.357,0.191,0.164,west-northwest,1.7,No
2016/11/29,03:50,0.396,0.231,0.394,0.370,0.357,0.191,0.164,west-northwest,1.2,No
2016/11/29,04:00,0.394,0.231,0.396,0.371,0.355,0.192,0.164,north-northwest,1.5,No
2016/11/29,04:10,0.397,0.230,0.394,0.369,0.357,0.192,0.164,northwest,2.1,No
2016/11/29,04:20,0.394,0.231,0.394,0.369,0.356,0.191,0.164,west-northwest,3.0,No
2016/11/29,04:30,0.393,0.231,0.395,0.372,0.355,0.191,0.165,west-northwest,2.8,No
2016/11/29,04:40,0.395,0.231,0.395,0.370,0.358,0.191,0.164,northwest,4.2,No
2016/11/29,04:50,0.395,0.230,0.393,0.370,0.357,0.192,0.165,northwest,3.8,No
2016/11/29,05:00,0.393,0.231,0.393,0.371,0.357,0.192,0.165,northwest,3.4,No
2016/11/29,05:10,0.395,0.230,0.396,0.371,0.356,0.193,0.164,west-northwest,3.1,No
2016/11/29,05:20,0.394,0.230,0.393,0.369,0.357,0.193,0.163,northwest,2.4,No
2016/11/29,05:30,0.394,0.230,0.394,0.369,0.357,0.193,0.165,west-northwest,2.9,No
2016/11/29,05:40,0.394,0.231,0.394,0.370,0.355,0.192,0.165,northwest,1.9,No
2016/11/29,05:50,0.394,0.232,0.395,0.369,0.356,0.192,0.165,west-northwest,2.7,No
2016/11/29,06:00,0.396,0.230,0.394,0.370,0.355,0.193,0.164,northwest,1.1,No
2016/11/29,06:10,0.396,0.231,0.395,0.370,0.354,0.192,0.164,south,1.4,No
2016/11/29,06:20,0.394,0.231,0.396,0.371,0.356,0.192,0.165,west-southwest,3.5,No
2016/11/29,06:30,0.395,0.231,0.394,0.371,0.356,0.192,0.164,west,4.2,No
2016/11/29,06:40,0.396,0.232,0.393,0.369,0.355,0.192,0.164,west-northwest,7.1,No
2016/11/29,06:50,0.395,0.230,0.395,0.371,0.355,0.192,0.164,west-northwest,6.6,No
2016/11/29,07:00,0.394,0.232,0.396,0.371,0.357,0.193,0.164,west-northwest,6.0,No
2016/11/29,07:10,0.395,0.231,0.394,0.370,0.356,0.191,0.164,west-northwest,5.8,No
2016/11/29,07:20,0.392,0.231,0.393,0.371,0.354,0.191,0.164,north-northwest,5.8,No
2016/11/29,07:30,0.394,0.231,0.395,0.370,0.356,0.191,0.165,north-northwest,5.8,No
2016/11/29,07:40,0.396,0.231,0.394,0.369,0.357,0.192,0.165,north,3.9,No
2016/11/29,07:50,0.396,0.232,0.394,0.368,0.355,0.191,0.164,north-northwest,3.4,No
2016/11/29,08:00,0.395,0.229,0.393,0.371,0.354,0.190,0.164,northwest,3.1,No
2016/11/29,08:10,0.395,0.231,0.394,0.368,0.357,0.192,0.164,west-northwest,4.8,No
2016/11/29,08:20,0.394,0.231,0.394,0.370,0.356,0.192,0.165,northwest,5.0,No
2016/11/29,08:30,0.394,0.231,0.393,0.371,0.356,0.192,0.165,northwest,3.0,No
2016/11/29,08:40,0.395,0.231,0.395,0.370,0.356,0.192,0.165,north,2.0,No
2016/11/29,08:50,0.395,0.231,0.396,0.370,0.355,0.192,0.165,north,2.2,No
2016/11/29,09:00,0.394,0.232,0.394,0.371,0.354,0.192,0.165,north-northeast,3.1,No
2016/11/29,09:10,0.395,0.231,0.396,0.370,0.356,0.191,0.164,north,2.7,No
2016/11/29,09:20,0.395,0.231,0.395,0.371,0.355,0.192,0.164,north-northeast,3.9,No
2016/11/29,09:30,0.395,0.231,0.394,0.369,0.355,0.192,0.164,north-northeast,3.5,No
2016/11/29,09:40,0.395,0.231,0.394,0.368,0.358,0.193,0.163,north,3.9,No
2016/11/29,09:50,0.394,0.229,0.395,-,0.353,0.193,0.164,north,4.4,No
2016/11/29,10:00,0.393,0.232,0.393,-,0.356,0.193,0.164,north,3.8,No
2016/11/29,10:10,0.393,0.230,0.396,-,0.355,0.192,0.164,north,4.2,No
2016/11/29,10:20,0.392,0.231,0.394,-,0.356,0.192,0.165,north,4.3,No
2016/11/29,10:30,0.395,0.229,0.393,-,0.354,0.192,0.166,north-northwest,6.4,No
2016/11/29,10:40,0.392,0.231,0.393,-,0.354,0.192,0.164,north,5.9,No
2016/11/29,10:50,0.393,0.232,0.392,-,0.357,0.192,0.165,north,4.7,No
2016/11/29,11:00,0.395,0.230,0.396,-,0.355,0.192,0.165,north,2.5,No
2016/11/29,11:10,0.395,0.232,0.396,-,0.357,0.192,0.165,northwest,1.9,No
2016/11/29,11:20,0.395,0.231,0.395,-,0.356,0.193,0.165,north-northwest,2.3,No
2016/11/29,11:30,0.395,0.232,0.396,-,0.358,0.193,0.165,northwest,2.5,No
2016/11/29,11:40,0.394,0.231,0.395,-,0.355,0.192,0.165,northwest,1.4,No
2016/11/29,11:50,0.394,0.232,0.396,-,0.358,0.193,0.165,north,1.1,No
2016/11/29,12:00,0.394,0.232,0.393,-,0.357,0.193,0.165,north-northwest,1.5,No
2016/11/29,12:10,0.395,0.232,0.394,-,0.357,0.193,0.166,northeast,1.3,No
2016/11/29,12:20,0.394,0.233,0.393,-,0.354,0.192,0.165,southeast,0.7,No
2016/11/29,12:30,0.396,0.232,0.396,-,0.357,0.194,0.165,-,CALM,No
2016/11/29,12:40,0.395,0.232,0.394,-,0.356,0.193,0.166,west-northwest,3.0,No
2016/11/29,12:50,0.397,0.232,0.395,-,0.355,0.194,0.165,north,1.7,No
2016/11/29,13:00,0.393,0.232,0.394,-,0.360,0.193,0.166,-,CALM,No
2016/11/29,13:10,0.397,0.232,0.396,-,0.359,0.192,0.166,-,CALM,No
2016/11/29,13:20,0.394,0.232,0.393,-,0.359,0.194,0.166,west,7.5,No
2016/11/29,13:30,0.395,0.231,0.396,-,0.357,0.193,0.166,west-northwest,6.2,No
2016/11/29,13:40,0.395,0.233,0.393,-,0.356,0.193,0.166,west-northwest,6.9,No
2016/11/29,13:50,0.396,0.232,0.398,-,0.359,0.193,0.166,west-northwest,8.1,No
2016/11/29,14:00,0.396,0.232,0.397,-,0.359,0.192,0.166,west-northwest,5.1,No
2016/11/29,14:10,0.398,0.234,0.397,-,0.360,0.193,0.166,west-northwest,6.9,No
2016/11/29,14:20,0.396,0.232,0.397,-,0.356,0.192,0.165,west-northwest,5.4,No
2016/11/29,14:30,0.398,0.233,0.395,-,0.355,0.193,0.166,northwest,3.6,No
2016/11/29,14:40,0.397,0.233,0.398,-,0.360,0.193,0.166,west-northwest,3.3,No
2016/11/29,14:50,0.395,0.232,0.398,-,0.357,0.193,0.166,northwest,3.6,No
2016/11/29,15:00,0.399,0.233,0.397,-,0.360,0.193,0.166,west-northwest,2.5,No
2016/11/29,15:10,0.396,0.233,0.397,0.369,0.357,0.193,0.166,west-northwest,4.8,No
2016/11/29,15:20,0.396,0.232,0.395,0.365,0.357,0.193,0.167,west-northwest,3.0,No
2016/11/29,15:30,0.398,0.233,0.399,0.367,0.358,0.193,0.166,west,4.4,No
2016/11/29,15:40,0.396,0.232,0.397,0.368,0.356,0.194,0.166,northwest,4.5,No
2016/11/29,15:50,0.395,0.232,0.395,0.366,0.359,0.193,0.167,northwest,2.6,No
2016/11/29,16:00,0.397,0.232,0.399,0.367,0.359,0.194,0.167,west-northwest,3.3,No
2016/11/29,16:10,0.396,0.232,0.396,0.368,0.359,0.193,0.167,northwest,4.0,No
2016/11/29,16:20,0.396,0.233,0.397,0.367,0.357,0.193,0.167,west-northwest,3.0,No
2016/11/29,16:30,0.399,0.231,0.397,0.367,0.361,0.193,0.167,northwest,3.6,No
2016/11/29,16:40,0.397,0.232,0.397,0.368,0.358,0.194,0.166,northwest,4.4,No
2016/11/29,16:50,0.397,0.233,0.398,0.367,0.358,0.193,0.167,northwest,6.0,No
2016/11/29,17:00,0.398,0.232,0.399,0.367,0.358,0.194,0.166,northwest,5.3,No
2016/11/29,17:10,0.398,0.231,0.397,0.369,0.357,0.193,0.167,northwest,5.7,No
2016/11/29,17:20,0.397,0.232,0.397,0.366,0.358,0.194,0.166,northwest,5.1,No
2016/11/29,17:30,0.397,0.232,0.398,0.366,0.358,0.193,0.167,northwest,4.4,No
2016/11/29,17:40,0.397,0.233,0.398,0.368,0.359,0.194,0.167,west-northwest,3.8,No
2016/11/29,17:50,0.395,0.231,0.397,0.368,0.356,0.193,0.166,west-northwest,3.0,No
2016/11/29,18:00,0.397,0.232,0.400,0.366,0.357,0.193,0.166,northwest,1.7,No
2016/11/29,18:10,0.396,0.233,0.398,0.368,0.359,0.194,0.167,north,1.8,No
2016/11/29,18:20,0.397,0.232,0.397,0.368,0.358,0.194,0.167,north,2.0,No
2016/11/29,18:30,0.397,0.233,0.399,0.366,0.358,0.195,0.167,northwest,1.8,No
2016/11/29,18:40,0.397,0.232,0.399,0.368,0.359,0.194,0.167,northwest,2.1,No
2016/11/29,18:50,0.396,0.233,0.397,0.367,0.359,0.194,0.166,northwest,2.5,No
2016/11/29,19:00,0.396,0.232,0.398,0.367,0.358,0.193,0.168,north-northwest,2.5,No
2016/11/29,19:10,0.397,0.232,0.397,0.367,0.360,0.194,0.166,north-northwest,3.1,No
2016/11/29,19:20,0.398,0.232,0.397,0.368,0.360,0.194,0.166,north-northwest,4.0,No
2016/11/29,19:30,0.396,0.233,0.398,0.368,0.359,0.194,0.166,north-northwest,4.4,No
2016/11/29,19:40,0.397,0.232,0.398,0.368,0.359,0.195,0.167,north,5.1,No
2016/11/29,19:50,0.397,0.232,0.399,0.368,0.359,0.193,0.167,north-northwest,3.4,No
2016/11/29,20:00,0.399,0.232,0.398,0.367,0.358,0.193,0.167,north-northwest,3.4,No
2016/11/29,20:10,0.399,0.232,0.400,0.368,0.358,0.194,0.165,northwest,3.1,No
2016/11/29,20:20,0.397,0.232,0.398,0.368,0.358,0.193,0.167,north-northwest,2.8,No
2016/11/29,20:30,0.399,0.232,0.397,0.368,0.358,0.195,0.167,north,3.1,No
2016/11/29,20:40,0.398,0.233,0.398,0.369,0.359,0.195,0.167,north,1.6,No
2016/11/29,20:50,0.397,0.233,0.400,0.367,0.358,0.195,0.166,north-northeast,2.9,No
2016/11/29,21:00,0.398,0.232,0.399,0.367,0.357,0.194,0.166,north,3.1,No
2016/11/29,21:10,0.398,0.232,0.398,0.366,0.357,0.194,0.167,north,4.8,No
2016/11/29,21:20,0.397,0.233,0.400,0.367,0.358,0.193,0.167,north,4.8,No
2016/11/29,21:30,0.397,0.232,0.398,0.367,0.358,0.193,0.167,north,5.7,No
2016/11/29,21:40,0.396,0.232,0.398,0.368,0.359,0.194,0.167,north,5.2,No
2016/11/29,21:50,0.398,0.233,0.399,0.368,0.358,0.195,0.166,north,4.8,No
2016/11/29,22:00,0.397,0.232,0.399,0.367,0.359,0.194,0.167,north,4.0,No
2016/11/29,22:10,0.399,0.231,0.399,0.369,0.358,0.195,0.167,north,4.4,No
2016/11/29,22:20,0.399,0.233,0.398,0.367,0.358,0.194,0.167,north,4.1,No
2016/11/29,22:30,0.397,0.232,0.398,0.368,0.357,0.193,0.166,north,4.2,No
2016/11/29,22:40,0.396,0.234,0.397,0.368,0.357,0.194,0.167,north-northeast,3.5,No
2016/11/29,22:50,0.396,0.233,0.399,0.367,0.357,0.194,0.167,north,3.4,No
2016/11/29,23:00,0.398,0.232,0.398,0.368,0.358,0.195,0.167,north,2.2,No
2016/11/29,23:10,0.397,0.232,0.398,0.367,0.357,0.192,0.166,north,2.3,No
2016/11/29,23:20,0.397,0.232,0.398,0.367,0.358,0.193,0.167,north,1.9,No
2016/11/29,23:30,0.397,0.234,0.398,0.368,0.358,0.194,0.166,north-northeast,1.2,No
2016/11/29,23:40,0.399,0.232,0.398,0.368,0.356,0.194,0.168,north-northeast,1.6,No
2016/11/29,23:50,0.397,0.232,0.398,0.369,0.358,0.194,0.167,north,1.6,No
